This demonstration page uses our WeatherBlox Daily Observations layout. Learn more.

Left ArrowRight Arrow

Hourly Observations for January 3, 2016

Temp ( °F °C ) Dew Point ( °F °C ) Humidity (%) Winds ( mph kmh ) Pressure ( in mb ) Visibility ( mi km ) Precip ( " mm )
12:53 am 00:53 Clear 24 -4.4 16 -8.9 71 71 N 8 13 30.29 1026 10 16 0.00 0.00
1:53 am 01:53 Clear 23 -5 15 -9.4 72 72 NW 8 13 30.29 1026 10 16 0.00 0.00
2:53 am 02:53 Clear 23 -5 15 -9.4 72 72 NNW 12 19 30.30 1026 10 16 0.00 0.00
3:53 am 03:53 Clear 21 -6.1 14 -10 74 74 NW 9 15 30.30 1026 10 16 0.00 0.00
4:53 am 04:53 Clear 21 -6.1 14 -10 74 74 NW 9 15 30.31 1027 10 16 0.00 0.00
5:53 am 05:53 Clear 21 -6.1 14 -10 74 74 NNW 9 15 30.32 1027 10 16 0.00 0.00
6:53 am 06:53 Clear 19 -7.2 13 -10.6 77 77 WNW 10 17 30.35 1028 10 16 0.00 0.00
7:53 am 07:53 Clear 20 -6.7 13 -10.6 74 74 NW 12 19 30.37 1029 10 16 0.00 0.00
8:53 am 08:53 Sunny 22 -5.6 14 -10 71 71 NNW 10 17 30.40 1029 10 16 0.00 0.00
9:53 am 09:53 Sunny 26 -3.3 16 -8.9 66 66 N 10 17 30.42 1030 10 16 0.00 0.00
10:53 am 10:53 Sunny 28 -2.2 19 -7.2 69 69 N 9 15 30.43 1031 10 16 0.00 0.00
11:53 am 11:53 Sunny 30 -1.1 20 -6.7 66 66 N 9 15 30.42 1030 10 16 0.00 0.00
12:53 pm 12:53 Sunny 33 0.6 22 -5.6 64 64 N 9 15 30.40 1029 10 16 0.00 0.00
1:53 pm 13:53 Sunny 34 1.1 23 -5 64 64 N 8 13 30.38 1029 10 16 0.00 0.00
2:53 pm 14:53 Sunny 35 1.7 23 -5 61 61 NNE 7 11 30.38 1029 10 16 0.00 0.00
3:53 pm 15:53 Sunny 35 1.7 23 -5 61 61 NE 9 15 30.40 1030 10 16 0.00 0.00
4:53 pm 16:53 Sunny 31 -0.6 22 -5.6 69 69 ENE 5 7 30.41 1030 10 16 0.00 0.00
5:53 pm 17:53 Clear 28 -2.2 20 -6.7 72 72 Calm 30.42 1030 10 16 0.00 0.00
6:53 pm 18:53 Clear 24 -4.4 19 -7.2 81 81 ENE 6 9 30.45 1031 10 16 0.00 0.00
7:53 pm 19:53 Clear 22 -5.6 17 -8.3 82 82 ENE 6 9 30.47 1032 10 16 0.00 0.00
8:53 pm 20:53 Clear 19 -7.2 16 -8.9 88 88 E 3 6 30.48 1032 10 16 0.00 0.00
9:53 pm 21:53 Clear 18 -7.8 14 -10 84 84 E 3 6 30.48 1032 10 16 0.00 0.00
10:53 pm 22:53 Clear with Mist and Fog 16 -8.9 12 -11.1 84 84 Calm 30.48 1032 5 8 0.00 0.00
11:53 pm 23:53 Clear 14 -10 10 -12.2 84 84 N 3 6 30.49 1032 7 11 0.00 0.00

Powered by AerisWeather